Tracking 30744 objects as of 23-Jun-2025
HD Live streaming from Space Station
objects crossing your sky now

DELTA 1 DEB

Track DELTA 1 DEB now!
10-day predictions


NORAD ID: 9042
Int'l Code: 1975-004DG
Perigee: 715.9 km
Apogee: 805.5 km
Inclination: 97.9 °
Period: 99.9 minutes
Semi major axis: 7131 km
RCS: 0.263 m2 (medium)
Launch date: January 22, 1975
Source: United States (US)
Launch site: AIR FORCE WESTERN TEST RANGE (AFWTR)

Note: This is SATELLITE DEBRIS
Your satellite tracking list
Your tracking list is empty




NASA's NSSDC Master Catalog

Two Line Element Set (TLE):
1 09042U 75004DG  25173.33126736  .00000223  00000-0  79050-4 0  9992
2 09042  97.9323 140.8835 0062833  78.2377 282.5853 14.41505076587809
Source of the keplerian elements: AFSPC